CAPE
164 162 142 213 170 184 131 303 799 913 1185 1318 1625 1600 1571 1519 1495 1466 1059 609 287 51
227 218 197 201 222 188 174 105 400 478 725 1039 1324 1569 1674 1611 1554 1395 1529 1320 1182 758
235 289 269 299 155 191 219 124 58 267 706 947 1141 1407 1611 1554 1775 1751 1582 1502 1672 1666
266 326 339 293 307 279 243 271 240 225 460 827 1061 1252 1424 1405 1668 1887 1963 1893 1637 1417
266 326 344 315 360 394 301 315 340 378 454 724 883 1055 1194 1069 1228 1533 1772 2067 2076 1757
248 327 361 422 444 463 408 370 374 402 368 376 698 954 1130 1059 1260 1524 1641 1997 2201 2142
358 357 451 527 541 565 524 430 467 486 499 489 621 860 1150 1254 1246 1370 1685 1918 2124 2217
511 539 600 703 694 697 672 577 622 614 603 667 736 624 789 1024 1283 1498 1625 1826 1995 2138
687 698 737 777 821 820 691 633 755 755 759 797 826 452 359 705 1121 1610 1743 1601 1814 1865
841 815 826 875 953 1015 932 956 834 826 839 888 1003 585 269 184 662 1014 1240 1492 1762 1916
900 894 931 949 947 946 1086 1172 1253 1227 1250 1146 1141 796 424 248 470 858 1171 1354 1448 1516
925 1001 1107 1093 1091 1075 1037 1018 1064 1309 1458 1331 1301 902 559 450 850 1020 1161 1440 1612 1701
976 1002 1121 1234 1299 1396 1403 1357 1394 1317 1439 1468 1424 1274 638 470 1017 1205 1286 1616 1800 1541
1271 1295 1327 1414 1587 1754 1799 1857 1986 1936 1957 1867 1715 1740 1126 694 1199 1454 1678 1758 1782 1960
CIN
-141 -150 -141 -117 -108 -104 -102 -70 -45 -44 -37 -30 -23 -20 -23 -20 -14 -20 -28 -35 -49 -102
-159 -167 -167 -162 -154 -134 -131 -135 -87 -66 -46 -36 -29 -25 -23 -17 -21 -24 -21 -22 -26 -33
-183 -202 -183 -179 -198 -166 -141 -152 -169 -103 -63 -45 -44 -34 -28 -18 -19 -19 -16 -19 -18 -22
-202 -208 -210 -212 -194 -172 -146 -122 -123 -131 -92 -58 -44 -44 -37 -29 -20 -18 -14 -16 -23 -40
-236 -231 -221 -233 -220 -197 -175 -147 -135 -118 -109 -79 -72 -60 -52 -52 -40 -38 -25 -18 -15 -37
-263 -261 -253 -240 -214 -224 -204 -176 -163 -161 -152 -136 -101 -86 -73 -73 -48 -39 -44 -29 -23 -30
-305 -284 -266 -249 -238 -229 -228 -192 -169 -185 -168 -147 -118 -109 -82 -74 -66 -59 -54 -45 -41 -37
-329 -303 -281 -258 -249 -246 -236 -218 -180 -171 -176 -160 -139 -138 -132 -111 -95 -83 -74 -66 -65 -63
-339 -318 -308 -282 -271 -263 -270 -251 -213 -194 -179 -160 -163 -203 -220 -161 -127 -103 -101 -106 -99 -103
-364 -351 -338 -317 -290 -279 -267 -248 -254 -227 -224 -208 -199 -254 -299 -306 -199 -163 -160 -147 -128 -109
-387 -370 -367 -356 -353 -333 -283 -245 -231 -222 -227 -234 -245 -294 -355 -378 -304 -233 -206 -192 -198 -195
-426 -391 -373 -376 -363 -344 -337 -317 -301 -258 -230 -252 -270 -355 -412 -434 -336 -307 -300 -261 -255 -245
-441 -403 -385 -363 -342 -324 -309 -282 -279 -296 -300 -306 -299 -341 -463 -512 -374 -357 -364 -329 -318 -365
-439 -421 -393 -362 -347 -307 -282 -253 -249 -265 -284 -313 -352 -335 -463 -562 -425 -362 -332 -331 -314 -300
Wind_Speed
39 40 37 34 34 34 33 31 29 26 24 23 22 20 19 19 19 18 19 20 21 21
44 40 38 35 36 36 34 32 30 28 25 23 23 21 19 19 18 17 19 20 21 22
46 44 39 39 38 38 36 34 30 27 25 23 21 20 18 18 18 18 17 20 22 23
49 47 43 42 42 39 14 12 24 25 23 22 20 16 16 17 16 18 18 19 21 23
44 43 44 43 43 30 13 10 23 22 17 11 10 12 13 17 16 17 19 20 21 25
37 36 44 33 33 31 14 11 11 16 16 12 9 9 14 17 17 20 21 23 23 26
23 21 21 21 32 38 27 14 15 13 12 14 13 12 18 20 22 23 24 27 29 30
27 28 31 26 35 35 21 15 15 16 21 23 26 26 26 25 25 24 27 32 33 32
27 28 29 25 28 29 18 15 27 31 30 28 28 29 27 25 25 27 30 32 33 33
27 29 28 25 23 19 16 21 32 30 27 28 27 29 29 30 31 33 33 33 32 31
25 25 23 20 18 21 22 16 17 30 29 30 31 29 30 32 33 37 36 33 31 30
21 21 20 18 21 22 21 25 35 36 33 31 32 29 31 29 35 37 36 35 33 29
19 18 17 23 26 26 25 30 33 33 33 30 28 25 26 26 31 36 34 32 28 26
20 21 23 25 26 26 25 28 31 35 15 23 21 23 21 24 28 34 34 32 30 26
Wind_Direction
194 201 199 197 202 210 212 206 202 190 189 186 184 178 170 172 172 169 173 180 187 196
202 199 199 197 204 218 221 217 206 197 188 184 183 178 170 173 171 165 168 174 187 195
205 205 199 204 204 212 224 218 203 190 186 183 181 180 174 175 175 169 164 176 186 196
215 212 207 208 220 210 232 186 185 186 183 184 181 175 175 179 176 176 175 175 187 198
231 233 206 207 229 251 197 204 185 185 180 177 172 171 173 182 180 181 185 187 187 201
239 234 204 195 248 251 238 221 200 187 188 190 192 186 182 185 185 188 192 195 197 206
229 207 206 242 248 243 253 241 196 197 201 192 193 192 188 190 194 198 201 206 211 215
239 242 244 246 246 246 249 208 201 198 194 195 197 198 198 197 199 199 206 218 223 224
239 241 242 244 247 249 245 209 194 199 200 199 199 201 199 195 197 203 211 218 222 225
238 240 241 243 243 240 232 255 198 198 197 199 199 201 200 200 206 215 218 219 219 222
237 238 238 236 234 246 250 218 197 197 198 200 203 200 201 204 210 221 222 220 219 219
230 233 234 229 240 245 249 253 199 204 201 199 203 199 202 201 213 222 222 222 222 220
227 227 225 239 242 244 248 248 247 198 199 197 198 197 199 198 208 220 220 222 220 221
230 234 239 241 241 243 247 250 249 216 208 194 197 201 201 202 205 217 224 224 225 223